Weather History for Billings, MT

Change the Weather History Date:

Friday, October 18, 2013

  Actual Average Record
Temperature  
Mean Temperature 44 °F 48 °F  
Max Temperature 55 °F 59 °F 83 °F (1955)
Min Temperature 32 °F 37 °F 24 °F (1949)
Degree Days  
Heating Degree Days 21 17  
Month to date heating degree days 363 261  
Since 1 July heating degree days 477 490  
Cooling Degree Days 0 0  
Month to date cooling degree days 0 0  
Year to date cooling degree days 840 633  
Moisture  
Dew Point 29 °F    
Average Humidity 59    
Maximum Humidity 82    
Minimum Humidity 35    
Precipitation  
Precipitation 0.00 in 0.04 in 0.76 in (1949)
Month to date precipitation 2.29 0.78  
Year to date precipitation 14.10 12.13  
Snow  
Snow 0.00 in 0.10 in 5.80 in (1949)
Month to date snowfall 0.3 2.2  
Since 1 July snowfall 0.3 3.3  
Since 1 September snowfall 0.3 3.3  
Snow Depth 0.00 in    
Sea Level Pressure  
Sea Level Pressure 30.15 in    
Wind  
Wind Speed 13 mph (West)    
Max Wind Speed 25 mph    
Max Gust Speed 29 mph    
Visibility 10 miles    
Events      
T = Trace of Precipitation, MM = Missing Value Source: NWS Daily Summary

Daily Weather History Graph

Daily Weather History Graph

Search for Another Location

Airport:

Trip Planner

Search our weather history database for the weather conditions in past years. The results will help you decide how hot, cold, wet, or windy it might be!

Date:

Astronomy

Oct. 18, 2013 Rise Set
Actual Time 7:35 AM MDT 6:22 PM MDT
Civil Twilight 7:05 AM MDT 6:52 PM MDT
Nautical Twilight 6:30 AM MDT 7:27 PM MDT
Astronomical Twilight 5:55 AM MDT 8:01 PM MDT
Moon 6:12 PM MDT (10/18) 7:14 AM MDT (10/18)
Length of Visible Light 11h 47m
Length of Day
10h 47m
Full, 100% of the Moon is Illuminated
Oct 18
Full
Oct 18
Full
Oct 26
Last Quarter
Nov 3
New
Nov 9
First Quarter

Hourly Weather History & Observations

Time (MDT) Temp. Windchill Dew Point Humidity Pressure Visibility Wind Dir Wind Speed Gust Speed Precip Events Conditions
12:53 AM 37.0 °F 29.8 °F 32.0 °F 82% 30.25 in 10.0 mi WNW 10.4 mph - N/A   Overcast
1:53 AM 37.0 °F 30.4 °F 30.9 °F 79% 30.25 in 10.0 mi West 9.2 mph - N/A   Overcast
2:53 AM 37.0 °F 29.8 °F 30.0 °F 76% 30.25 in 10.0 mi West 10.4 mph - N/A   Overcast
3:53 AM 37.0 °F 30.4 °F 28.9 °F 73% 30.25 in 10.0 mi NW 9.2 mph - N/A   Overcast
4:53 AM 37.9 °F 31.5 °F 30.0 °F 73% 30.25 in 10.0 mi NW 9.2 mph - N/A   Overcast
5:53 AM 37.0 °F 31.0 °F 30.0 °F 76% 30.26 in 10.0 mi NNW 8.1 mph - N/A   Overcast
6:53 AM 33.1 °F 26.9 °F 28.0 °F 82% 30.27 in 10.0 mi WNW 6.9 mph - N/A   Partly Cloudy
7:53 AM 34.0 °F 28.0 °F 27.0 °F 75% 30.27 in 10.0 mi WSW 6.9 mph - N/A   Partly Cloudy
8:53 AM 37.0 °F 32.4 °F 28.0 °F 70% 30.27 in 10.0 mi West 5.8 mph - N/A   Partly Cloudy
9:53 AM 39.0 °F 36.8 °F 28.9 °F 67% 30.26 in 10.0 mi SW 3.5 mph - N/A   Partly Cloudy
10:53 AM 43.0 °F 39.5 °F 28.9 °F 58% 30.22 in 10.0 mi WSW 5.8 mph - N/A   Partly Cloudy
11:53 AM 48.0 °F - 30.0 °F 50% 30.18 in 10.0 mi West 17.3 mph - N/A   Partly Cloudy
12:53 PM 51.1 °F - 28.9 °F 43% 30.14 in 10.0 mi WNW 17.3 mph 23.0 mph N/A   Partly Cloudy
1:53 PM 53.1 °F - 28.9 °F 40% 30.12 in 10.0 mi WNW 13.8 mph 24.2 mph N/A   Scattered Clouds
2:53 PM 54.0 °F - 28.0 °F 37% 30.08 in 10.0 mi WNW 15.0 mph 21.9 mph N/A   Scattered Clouds
3:53 PM 54.0 °F - 27.0 °F 35% 30.06 in 10.0 mi West 16.1 mph - N/A   Scattered Clouds
4:53 PM 55.0 °F - 28.9 °F 37% 30.04 in 10.0 mi West 15.0 mph - N/A   Scattered Clouds
5:53 PM 53.1 °F - 28.9 °F 40% 30.04 in 10.0 mi West 11.5 mph - N/A   Scattered Clouds
6:53 PM 50.0 °F - 28.9 °F 44% 30.05 in 10.0 mi West 17.3 mph - N/A   Partly Cloudy
7:53 PM 46.9 °F - 30.0 °F 52% 30.06 in 10.0 mi WSW 13.8 mph - N/A   Scattered Clouds
8:53 PM 44.1 °F 35.4 °F 30.9 °F 60% 30.06 in 10.0 mi WSW 21.9 mph - N/A   Partly Cloudy
9:53 PM 42.1 °F 33.6 °F 30.0 °F 62% 30.05 in 10.0 mi WSW 18.4 mph - N/A   Clear
10:53 PM 42.1 °F 33.1 °F 28.9 °F 60% 30.03 in 10.0 mi WSW 20.7 mph - N/A   Clear
11:53 PM 42.1 °F 33.1 °F 28.0 °F 58% 30.00 in 10.0 mi WSW 20.7 mph - N/A   Clear